Location: Oriwa
(40.7500°S, 175.3333°E)
Time: 14:11:05
(UTC+00:00)

Cosmos 1269 Rocket - Pass Details

Date: 03 February 2023
Orbit: 771 x 778 km, 74.1° (Epoch: 31 March)

Event Time Altitude Azimuth Distance (km) Brightness Sun altitude
Exits shadow 16:39:35 - 332° (NNW) 2,585 6.2 -9.1°
Reaches altitude 10° 16:40:15 10° 331° (NNW) 2,332 6.0 -9.0°
Maximum altitude 16:45:30 64° 249° (WSW) 869 4.1 -8.2°
Drops below altitude 10° 16:50:50 10° 167° (SSE) 2,356 7.2 -7.3°
Sets 16:53:16 0° 163° (SSE) 3,290 8.0 -6.9°
